Wind_Speed
19 20 25 29 32 34 35 35 35 35 34 32 31 31 33 34 33 32 30 29 28 26 24 23 23 23 23 22 21 20 19 19 20 20 19 19 19 19 20 20 23 25 27 29 31 31 33 37 36 35 33 29 26 26 31 34 31 29 28 26 24 24 24 24 24 22 22 23 23 21 20 20 19 17 17 17 18 17 16 15 15 14 14 14 15 16 17
24 21 19 21 27 32 35 36 36 35 35 34 32 32 33 34 35 34 32 31 30 28 27 26 25 24 23 22 21 18 17 17 18 19 19 18 18 18 17 17 17 19 22 24 25 27 32 35 34 32 29 27 24 22 25 29 28 27 27 25 23 22 21 21 22 22 22 23 23 20 18 18 18 17 17 16 17 17 16 16 16 16 16 16 17 18 19
27 25 21 19 19 23 32 38 38 35 34 34 32 31 32 33 34 34 33 31 29 27 27 26 26 25 24 23 21 18 17 17 17 17 17 17 18 17 16 14 13 13 16 18 24 29 33 33 31 30 27 25 24 23 23 25 24 23 23 22 21 20 20 20 21 22 22 23 23 20 17 17 18 18 18 17 17 17 16 16 17 18 19 19 20 20 21
25 26 25 23 18 15 23 36 39 35 33 33 31 31 31 31 32 33 32 30 27 25 25 25 25 26 25 24 22 20 18 18 17 16 17 17 18 17 16 15 13 13 15 14 21 30 33 31 29 27 26 24 23 23 23 22 23 22 22 20 20 20 20 20 19 18 17 16 16 16 16 17 19 19 19 18 18 17 16 16 17 19 20 21 22 23 24
22 23 25 25 21 15 16 26 34 34 33 33 32 31 31 31 31 31 31 29 26 24 23 24 24 25 26 26 24 22 21 19 18 17 18 18 19 19 17 16 15 15 16 15 16 22 26 28 26 24 25 25 22 21 20 20 21 22 20 19 20 19 19 17 16 15 14 12 13 14 16 17 17 18 18 17 17 16 16 16 17 19 20 22 23 24 25
19 18 21 23 22 19 16 18 24 29 30 31 32 32 31 31 31 31 30 29 27 24 23 23 23 24 25 26 25 24 23 22 22 21 21 20 20 20 18 17 17 16 16 16 16 18 19 21 22 22 22 22 21 22 21 21 23 22 19 19 19 19 18 17 16 15 14 15 16 16 17 17 18 18 17 17 17 18 17 17 18 20 21 23 24 24 25
19 16 16 18 18 18 18 18 19 22 25 27 30 31 31 31 30 30 30 30 28 26 24 23 22 23 24 25 25 25 24 24 25 24 23 22 21 21 20 18 17 16 17 17 19 21 18 17 20 21 19 18 20 23 21 21 22 21 19 18 18 18 19 19 18 17 18 19 19 18 18 19 18 17 17 19 20 19 19 19 20 21 21 22 23 24 24
23 21 19 17 15 15 17 18 18 20 22 24 26 28 29 30 30 30 30 30 30 29 27 26 24 24 25 25 25 25 24 25 25 26 25 23 22 21 21 20 19 19 20 21 22 23 21 19 20 22 21 20 22 22 19 18 19 18 17 18 19 19 20 22 22 22 22 21 19 18 19 20 20 19 20 21 21 20 21 21 22 22 22 22 23 24 25
23 25 25 21 18 17 17 16 17 18 20 21 23 24 25 27 29 30 30 29 30 30 30 29 28 27 26 25 25 25 26 26 26 26 26 25 24 23 22 22 21 21 23 26 25 23 21 20 20 21 22 23 24 24 23 22 22 20 18 17 19 20 21 24 24 23 22 20 18 18 20 20 20 21 21 20 20 21 22 23 23 23 23 23 24 26 27
22 24 26 25 22 20 18 16 16 17 18 18 20 22 23 24 25 28 29 29 29 30 31 31 30 29 27 25 25 24 25 26 26 27 27 26 27 27 25 23 23 23 23 27 27 25 22 22 22 21 22 23 24 25 25 24 25 25 24 22 21 19 18 20 20 18 17 18 19 20 20 20 20 21 20 21 22 23 24 24 23 23 23 24 25 27 29
20 21 23 24 24 22 20 18 17 16 16 15 17 20 22 23 23 24 27 29 30 29 30 30 30 29 28 26 25 24 23 24 25 27 28 28 29 29 26 25 25 25 24 24 24 24 24 24 24 23 24 24 24 25 26 26 26 28 29 29 28 26 24 22 22 20 19 19 20 21 22 23 24 22 22 23 24 25 25 25 23 23 24 26 27 29 31
16 17 18 19 21 21 20 18 17 15 14 14 17 20 22 23 23 23 24 27 28 29 29 29 29 28 27 26 25 24 23 23 25 27 28 28 28 28 26 25 26 27 27 26 25 25 25 25 25 26 26 27 27 27 28 28 28 29 30 31 32 32 31 30 29 29 27 26 25 23 23 23 24 25 26 27 27 27 27 27 26 26 26 28 30 32 34
12 13 14 16 17 18 19 18 17 16 14 13 17 20 21 23 24 24 24 25 26 28 29 30 30 29 27 25 25 25 25 24 25 27 28 27 27 27 27 26 26 27 29 29 28 27 27 26 27 28 28 29 29 30 30 30 30 30 31 32 32 31 31 31 32 33 33 32 31 31 30 26 25 27 29 29 30 30 31 31 30 29 28 28 30 32 35
12 12 12 13 14 15 17 17 18 18 17 15 16 17 19 21 22 22 24 26 27 28 29 29 30 30 28 27 26 26 27 27 28 30 30 28 26 27 28 27 26 26 27 28 28 29 30 30 30 30 31 31 31 30 30 30 30 31 31 32 32 31 30 31 31 32 34 34 33 33 35 34 32 31 32 32 32 33 34 35 35 35 34 33 34 35 37
12 13 12 12 12 12 14 15 17 18 19 18 16 15 17 19 20 20 22 23 25 27 28 28 28 28 28 29 27 24 24 28 31 32 31 29 27 27 28 28 27 28 28 28 29 30 31 32 33 34 34 33 32 31 30 30 30 30 30 31 31 31 31 31 31 32 34 35 34 33 35 37 38 37 37 37 37 37 37 38 38 38 38 38 39 42 44
11 12 12 13 13 11 11 12 14 16 17 18 17 15 14 15 16 18 20 20 19 19 21 23 24 24 25 29 29 24 22 26 30 30 29 28 28 29 30 30 30 30 31 31 32 32 32 33 35 35 36 35 33 32 32 31 30 30 30 30 30 31 32 33 33 34 35 36 37 37 38 39 40 41 41 42 42 41 40 39 39 40 40 42 44 46 49
9 9 10 12 14 13 12 12 13 14 15 17 18 18 16 15 15 16 18 19 19 17 17 18 20 20 20 23 25 23 21 23 27 28 27 27 27 28 31 31 31 31 32 32 33 33 33 34 35 37 37 36 34 33 33 32 32 32 31 31 31 32 34 35 35 36 37 38 39 40 41 42 43 44 45 46 45 44 43 43 43 44 46 47 49 51 53
9 9 10 12 13 14 14 15 15 15 15 16 17 19 19 18 18 18 18 19 20 20 20 20 20 20 20 21 22 22 22 25 27 27 26 25 25 26 27 28 30 30 31 31 32 34 34 35 37 38 38 37 36 35 35 35 35 35 35 35 35 37 38 39 39 40 40 41 42 43 44 45 46 48 49 50 50 50 49 49 50 51 52 52 52 53 55
9 10 11 12 14 15 15 16 16 16 16 17 18 20 21 22 22 22 22 21 20 21 22 23 23 22 22 23 24 25 26 28 30 31 30 29 28 27 26 27 28 29 30 30 31 33 34 35 37 38 38 37 36 36 37 37 38 38 38 39 40 40 41 42 43 43 44 45 45 46 47 48 49 50 52 53 54 55 55 55 55 55 54 53 53 54 55
11 11 11 12 14 15 16 17 17 17 17 17 18 20 22 23 24 24 25 24 23 23 24 26 27 27 26 26 27 28 29 29 31 33 34 34 33 32 30 30 29 30 31 31 31 32 32 33 34 35 35 36 36 36 37 37 38 39 39 40 40 41 41 42 43 44 45 46 46 47 48 49 50 51 52 53 54 54 55 55 55 54 53 53 52 53 54
11 12 12 13 14 15 16 17 18 19 19 19 19 20 21 22 23 23 24 25 25 25 26 27 28 29 30 30 30 31 31 32 32 32 33 33 34 34 34 33 33 33 33 33 34 34 33 33 34 34 35 35 36 36 36 36 37 38 38 39 39 39 40 40 41 42 42 43 44 45 46 47 48 49 50 50 51 52 52 52 53 53 53 53 54 54 55
9 10 11 13 14 15 16 17 18 19 20 20 20 21 21 22 23 23 24 24 25 25 26 26 27 27 29 30 32 33 35 36 37 37 37 36 35 35 35 35 35 35 35 34 35 35 34 34 34 34 35 36 36 36 36 37 37 37 38 38 39 39 40 40 41 41 42 43 44 45 46 47 47 48 49 49 50 51 52 53 54 54 55 56 57 57 58
7 8 9 11 12 13 14 16 17 18 19 20 20 21 21 23 24 25 25 26 27 27 28 29 29 29 29 29 31 32 34 36 38 40 41 41 40 39 38 37 37 36 35 35 35 36 36 36 37 37 38 38 39 39 39 39 40 40 41 41 41 42 42 43 43 44 45 45 46 47 48 48 49 50 51 51 52 53 54 55 56 56 57 58 59 60 61
5 6 7 8 9 10 11 13 14 15 17 18 19 20 21 22 23 24 26 27 28 29 30 31 32 33 33 34 34 34 35 36 37 38 39 41 41 42 42 42 41 40 39 39 39 38 38 38 39 39 39 40 40 41 41 42 42 42 42 43 43 43 44 45 45 46 47 48 48 49 50 51 52 53 54 54 55 56 56 57 58 59 60 61 62 62 63
5 5 6 7 8 9 10 11 12 13 14 15 16 18 19 20 20 22 23 25 27 29 30 32 33 34 35 37 37 38 38 39 39 40 41 41 42 43 43 44 44 44 44 44 43 43 42 42 42 41 41 41 41 42 42 42 43 43 44 44 45 46 47 47 48 49 50 50 51 52 52 53 54 55 55 56 57 57 57 58 58 59 59 60 60 61 61
4 5 5 7 8 9 10 11 12 13 14 15 16 17 18 19 19 20 21 22 24 26 28 30 32 33 34 36 37 38 39 40 41 41 42 43 44 44 45 45 45 46 46 46 47 47 47 47 46 46 46 46 46 46 46 46 47 47 48 49 49 49 49 50 50 51 51 52 52 52 53 53 54 54 54 55 55 56 56 56 55 55 55 54 54 54 54
4 5 6 7 9 10 11 12 14 15 16 17 19 20 21 21 22 22 23 23 24 25 26 28 29 31 32 34 35 36 37 38 39 40 41 42 43 44 44 45 45 46 46 47 47 48 48 48 48 48 48 47 47 47 47 47 48 48 48 48 48 49 49 48 49 49 50 50 50 50 50 50 51 51 51 51 51 51 51 50 50 49 49 48 47 47 47
7 8 9 11 12 14 15 17 18 20 21 22 23 24 25 26 26 27 27 28 28 29 29 30 31 31 32 33 34 35 36 36 37 38 39 39 40 41 42 43 43 44 44 44 44 45 45 45 45 45 45 45 44 44 44 44 44 44 44 44 44 44 44 45 45 45 45 45 45 45 45 45 45 45 45 44 44 44 44 44 43 43 43 43 42 42 42
10 11 13 15 17 18 20 21 22 23 24 25 26 27 28 29 29 30 31 31 32 32 33 34 34 35 35 36 36 37 37 38 38 38 38 38 39 40 40 41 42 42 42 42 42 42 42 42 42 42 42 42 42 42 42 41 41 41 41 41 41 41 40 40 41 41 41 41 41 41 41 40 40 40 40 39 39 39 39 39 39 39 39 39 39 39 39
14 16 17 19 20 21 22 23 24 25 26 27 27 28 29 29 30 31 32 32 33 33 34 35 36 36 37 38 39 40 40 40 40 40 40 40 39 39 40 40 40 41 41 41 41 41 40 40 40 40 40 40 39 39 39 39 39 38 38 38 38 38 38 38 38 38 38 38 38 38 38 37 37 37 37 37 37 36 36 36 36 36 36 36 36 36 36
18 20 21 22 23 24 25 26 27 27 27 28 28 29 29 30 30 31 31 32 32 33 33 34 35 36 37 38 40 41 42 42 42 42 42 42 42 41 41 40 40 40 40 40 40 40 39 38 38 38 38 38 38 37 37 37 37 37 37 37 37 36 36 36 36 36 36 36 36 36 36 35 35 35 35 35 34 34 34 34 34 33 33 33 33 33 32
21 22 24 25 26 28 30 31 32 31 31 31 30 30 30 30 30 29 30 30 30 31 31 32 33 34 35 36 38 39 40 42 42 43 43 44 43 43 42 41 40 40 40 39 39 39 38 38 37 37 37 36 36 36 36 35 35 36 36 36 36 35 35 35 35 35 34 34 34 33 33 33 33 32 32 32 31 31 31 30 30 29 29 29 29 29 28
22 23 25 26 28 30 32 34 35 35 35 34 33 31 30 29 28 27 27 26 26 26 27 27 28 29 30 32 33 35 36 38 39 40 41 42 42 42 41 40 40 39 38 38 38 37 37 36 36 36 35 35 34 34 34 34 34 34 35 35 34 34 34 34 33 33 32 32 31 31 31 30 30 29 28 28 28 27 27 26 26 26 25 26 26 25 25
22 23 25 27 30 32 33 35 35 35 35 34 32 31 29 27 25 24 24 23 22 22 22 22 23 24 25 26 28 29 30 31 33 35 36 38 38 38 38 38 37 37 36 36 35 35 35 35 34 34 34 34 33 33 33 33 33 33 33 33 33 32 32 32 31 31 30 30 29 29 28 27 27 26 25 25 24 24 23 23 23 23 23 23 23 23 23
23 25 27 29 31 33 35 35 35 33 31 30 28 27 25 24 23 22 21 20 20 19 19 19 20 20 21 22 23 24 25 26 27 29 30 32 33 33 33 33 34 34 34 34 34 34 33 33 33 33 33 33 33 32 32 32 32 32 32 31 31 30 30 30 29 29 28 28 27 26 26 25 24 23 23 22 22 21 21 21 21 21 21 22 22 22 22
24 26 28 30 33 35 35 34 32 30 27 26 24 23 22 21 21 20 20 19 18 18 17 17 17 18 18 19 20 21 22 22 23 24 26 27 28 29 30 30 31 31 31 32 32 32 32 32 32 32 32 32 31 31 31 31 31 30 30 30 29 29 28 28 27 27 27 26 25 24 23 22 21 20 20 20 19 19 20 20 20 21 22 22 22 23 23
26 28 30 32 34 35 35 32 29 26 24 23 22 22 21 20 19 19 18 18 17 17 17 16 16 17 17 18 18 19 19 20 21 21 22 23 24 26 27 28 28 29 29 30 30 30 30 30 30 30 30 30 30 29 29 29 29 29 29 28 28 27 27 26 26 26 25 24 23 21 20 20 19 19 18 18 19 19 20 20 21 21 22 22 22 23 23
26 29 31 33 34 35 32 29 25 23 22 21 21 21 20 19 18 17 17 17 17 17 17 17 17 17 17 18 18 18 18 18 19 19 20 20 21 23 24 25 26 26 27 28 28 28 28 28 28 28 28 28 28 28 28 27 27 27 27 27 27 26 26 25 25 24 23 22 20 19 18 18 18 18 18 18 19 19 20 20 20 20 21 21 22 22 22
27 29 31 33 34 33 30 26 23 21 19 20 20 20 19 19 18 17 17 17 17 17 17 17 17 17 18 18 19 19 18 18 18 18 18 18 19 20 22 22 23 23 24 25 25 26 26 26 26 26 26 27 27 27 27 26 26 26 26 26 26 25 24 24 23 22 21 19 18 18 18 18 18 18 18 18 18 18 18 18 19 19 20 20 21 21 22
27 29 31 32 33 32 28 24 21 19 18 18 19 19 19 19 18 18 17 17 17 18 17 17 16 16 17 18 19 19 18 18 17 17 17 17 17 18 19 20 20 21 21 22 23 24 24 25 25 25 25 26 26 26 26 25 25 25 25 25 25 24 23 22 21 21 19 18 18 18 18 17 17 17 16 16 16 16 16 16 17 18 19 20 20 21 22
27 29 31 31 31 30 27 23 21 19 18 18 18 18 18 19 19 19 18 18 18 18 17 16 16 15 16 17 18 18 18 18 17 17 16 16 16 16 17 18 18 18 19 20 21 22 23 23 23 24 24 25 25 25 25 25 24 24 24 24 23 22 21 21 20 19 18 18 17 17 17 16 15 15 14 14 14 15 15 16 18 19 19 20 21 21 22
27 29 31 31 31 29 26 23 21 19 19 18 18 18 18 18 19 19 19 18 17 16 15 14 14 14 14 15 16 16 16 17 16 16 16 16 16 16 16 16 16 17 17 18 19 20 21 22 23 23 23 24 24 24 24 24 23 23 23 23 22 21 20 20 19 18 18 17 17 16 16 15 14 14 14 14 15 16 17 18 19 20 21 21 22 21 20
27 29 31 31 30 29 26 23 21 21 20 20 19 18 17 17 18 19 18 17 15 14 12 12 12 12 13 13 14 14 15 15 15 15 15 15 15 15 16 16 16 16 16 17 18 19 20 21 22 22 23 23 24 24 23 23 23 22 22 22 22 21 20 19 18 18 17 16 16 15 15 15 14 14 14 15 16 17 18 19 19 20 21 21 21 20 20
27 29 30 31 30 29 26 24 22 22 21 21 21 20 18 18 17 17 17 16 15 13 11 11 12 13 12 12 12 12 13 13 13 13 13 13 13 14 15 15 16 16 15 16 17 18 19 19 20 21 22 23 24 24 23 22 22 22 22 22 21 21 20 19 18 17 17 16 15 15 15 15 15 15 15 16 18 18 19 19 19 20 21 21 21 21 21
27 28 30 31 30 29 27 24 23 22 22 21 21 20 20 19 18 17 16 15 14 13 12 12 12 12 11 11 10 10 10 10 10 10 10 10 11 12 13 13 14 15 15 15 16 17 17 18 19 20 21 22 23 23 23 22 21 21 22 22 21 21 20 19 18 17 17 16 16 16 16 16 15 16 16 17 18 18 18 18 19 20 21 21 22 22 22
27 28 29 30 30 29 27 25 23 23 22 22 21 21 20 19 19 17 15 14 14 14 13 12 11 10 9 8 8 8 7 7 6 6 7 8 9 9 10 11 12 13 14 14 15 16 16 17 18 18 19 21 22 22 22 21 21 22 22 22 22 21 21 20 18 18 17 16 16 16 16 16 16 17 17 18 18 18 18 18 19 20 21 22 22 22 20
27 28 29 30 30 29 28 25 24 23 22 22 22 21 19 19 19 17 14 13 14 14 13 11 9 8 8 7 7 6 5 4 4 4 5 6 7 7 8 9 9 10 12 13 14 15 16 16 17 18 18 19 20 21 21 21 22 23 23 23 22 22 21 20 19 18 17 17 17 17 17 17 17 17 18 18 18 18 18 18 19 20 20 21 21 19 17
27 28 28 29 30 30 28 26 24 23 22 22 21 21 19 19 18 17 14 13 14 13 12 11 10 10 9 8 8 7 6 5 5 5 6 6 7 7 7 7 7 8 9 10 12 13 15 16 16 17 18 18 19 20 21 21 22 24 24 23 23 23 22 21 19 18 18 18 18 19 19 18 18 18 18 17 17 17 18 18 18 19 19 20 19 17 15
28 28 29 29 29 30 29 27 25 23 22 22 21 21 20 19 18 16 14 13 14 13 13 13 12 12 12 11 10 10 10 10 10 9 8 7 7 7 8 8 8 9 9 9 10 10 12 14 15 16 17 17 17 19 20 21 22 23 23 23 23 23 22 21 20 19 19 19 19 19 19 18 18 18 17 18 17 17 18 18 18 18 18 18 17 15 14
29 29 29 29 29 29 29 27 25 24 23 22 21 21 20 19 18 17 15 14 15 16 16 16 16 16 15 15 14 13 13 14 14 13 13 11 10 9 9 9 9 10 11 11 11 11 10 11 12 14 15 15 16 17 19 21 22 22 23 23 24 24 23 22 21 21 20 20 20 20 19 18 18 17 18 18 17 17 17 17 16 16 16 17 16 15 14
29 29 29 29 29 29 29 28 26 25 23 23 22 21 21 20 19 18 16 15 16 17 19 20 19 19 19 18 17 17 17 17 17 17 17 16 15 13 12 12 12 12 12 13 13 13 12 11 11 11 13 14 15 16 18 20 21 21 22 23 24 24 23 22 22 22 21 21 21 20 19 18 18 17 17 17 17 17 17 16 16 15 15 15 15 14 14
30 30 30 30 30 29 29 28 27 25 24 23 22 22 21 21 20 19 18 17 17 18 20 21 21 20 20 20 20 19 18 18 18 19 19 19 18 17 16 15 15 15 15 14 15 15 15 14 13 12 11 12 13 14 16 18 20 21 21 22 23 23 23 23 23 23 22 22 21 20 20 19 18 18 17 17 17 17 16 16 15 14 14 14 14 14 13
Wind_Direction
259 245 233 231 234 236 236 235 236 237 239 241 242 242 243 246 250 252 253 255 258 259 261 263 263 264 265 265 269 269 263 257 253 255 257 254 255 257 256 257 256 257 262 262 260 251 231 221 225 232 236 237 240 245 243 237 232 231 234 235 232 231 235 238 239 241 241 238 240 248 252 246 239 238 240 239 239 242 248 254 258 259 259 260 258 252 246
256 255 248 239 237 238 237 236 236 237 239 240 241 242 244 247 250 252 254 256 260 261 261 262 262 263 266 267 269 268 262 256 254 257 258 255 254 256 258 259 257 259 258 248 242 237 223 217 222 229 232 234 237 238 235 231 231 232 233 235 232 228 230 236 240 243 241 238 241 250 254 245 234 234 241 242 237 239 247 255 259 261 261 261 259 253 246
252 251 254 256 251 244 239 235 234 236 239 240 241 242 244 247 250 253 255 257 260 262 261 260 259 260 263 266 267 266 260 255 254 257 256 253 253 255 260 264 260 261 258 231 211 215 218 216 219 225 228 230 231 229 224 225 232 233 231 232 230 229 235 241 244 245 244 241 240 243 250 248 239 240 246 245 237 236 244 252 258 261 262 263 263 260 254
254 250 251 257 262 258 242 233 230 233 238 241 243 243 244 247 250 252 255 256 259 260 259 258 258 258 260 263 264 263 260 256 254 255 254 253 256 259 265 272 268 265 269 243 204 205 213 215 216 223 226 225 227 227 226 232 236 227 219 223 227 232 239 241 238 236 236 237 236 241 252 254 249 247 247 243 234 231 241 255 262 265 265 265 264 263 260
257 254 251 253 258 260 247 233 230 234 239 242 244 245 245 246 249 251 254 256 259 260 259 257 256 257 258 260 261 261 260 260 258 257 256 257 262 267 271 278 278 274 272 256 216 204 209 213 217 223 226 227 230 230 228 231 230 219 213 223 231 233 232 226 217 212 219 236 246 251 252 250 249 250 248 240 234 236 249 262 267 269 269 269 268 265 262
252 253 252 252 253 254 250 240 235 237 240 242 244 246 247 247 247 249 252 256 258 259 259 256 254 254 256 256 258 259 259 261 262 261 261 261 264 269 272 277 280 276 269 254 229 212 206 208 212 217 219 222 225 226 224 224 225 226 230 234 233 229 222 213 209 215 234 254 260 259 255 248 244 244 242 239 241 248 259 264 265 266 268 270 272 270 265
239 242 247 249 250 251 252 250 245 241 240 241 242 244 245 246 247 247 249 252 254 255 257 258 255 255 256 256 257 258 258 259 261 260 259 259 262 266 269 270 269 263 259 251 233 221 218 216 215 216 217 214 210 211 216 221 226 234 238 234 228 225 223 221 223 234 249 258 259 256 253 246 240 239 241 245 249 253 258 261 262 263 264 267 270 271 268
237 238 243 248 251 252 254 255 254 250 245 242 243 243 244 245 246 246 247 249 251 252 254 256 256 257 259 260 259 259 257 256 256 256 256 255 259 266 267 265 263 255 249 243 229 220 223 228 224 224 227 222 215 215 221 225 228 229 229 231 232 230 231 233 236 244 254 257 255 251 248 243 241 243 245 247 249 251 254 257 260 262 263 263 265 267 268
242 241 244 248 251 252 255 258 263 262 255 248 245 244 243 244 245 246 246 246 249 252 253 253 255 256 259 261 261 261 260 257 252 251 253 255 260 266 265 261 262 259 247 236 225 215 217 225 226 227 230 228 227 231 235 235 234 228 224 232 237 236 238 239 240 247 255 256 248 242 241 241 241 243 248 250 249 249 252 256 260 260 260 261 262 263 264
243 242 242 245 248 250 254 259 266 271 267 257 249 246 245 244 243 243 245 244 245 248 250 252 253 256 257 259 262 265 265 262 254 248 250 257 264 266 262 256 257 257 249 238 228 219 220 228 229 230 234 235 235 237 239 239 236 230 226 229 233 235 237 237 239 244 248 248 247 244 242 241 240 242 247 251 251 250 251 254 256 258 259 260 260 261 261
239 239 240 242 245 248 252 257 263 272 272 258 246 244 246 247 244 242 242 242 242 244 247 249 251 253 255 257 259 261 263 262 257 250 251 260 264 262 258 253 251 250 247 242 236 232 234 236 235 233 235 237 238 238 239 240 237 234 231 230 233 237 238 238 243 245 237 233 243 251 252 248 244 240 237 239 245 253 255 255 257 260 262 260 260 259 258
234 237 238 239 242 245 250 255 261 268 270 255 242 239 241 245 248 247 244 242 241 241 244 246 248 249 251 253 255 258 259 259 256 253 254 256 255 252 251 250 249 246 243 241 239 240 241 241 240 238 237 237 238 239 241 241 240 240 239 237 238 241 243 243 247 250 246 239 237 242 247 249 246 242 239 236 238 244 250 252 252 255 259 262 264 263 260
228 233 236 235 238 241 246 252 255 258 260 251 239 236 237 241 245 248 248 247 245 244 244 244 245 247 249 252 252 251 251 251 250 250 250 247 244 244 246 247 246 244 241 239 238 239 242 244 244 244 242 240 238 239 241 243 244 243 244 245 244 243 243 244 245 248 251 248 240 235 237 239 239 239 241 241 238 239 244 247 247 248 250 255 261 263 260
220 225 230 232 235 237 240 245 248 248 247 242 230 224 226 232 235 237 241 245 248 250 250 248 247 247 247 248 247 242 241 242 242 242 245 245 243 244 244 244 244 243 241 240 241 242 243 245 245 245 245 243 241 239 240 241 242 243 244 246 246 244 242 243 246 248 250 249 245 239 237 237 238 239 241 243 243 242 244 246 248 249 248 248 252 255 257
218 221 226 226 227 229 230 233 236 236 236 235 227 215 213 219 223 225 230 235 241 247 252 253 253 251 247 243 241 239 240 241 238 234 236 239 241 241 242 244 245 243 242 242 243 244 244 243 243 243 243 243 242 241 239 239 240 241 243 244 246 246 246 246 248 249 249 250 249 246 243 241 242 244 245 245 245 245 247 248 249 250 250 251 253 255 255
219 222 223 221 221 226 225 225 229 230 229 228 227 223 218 218 220 222 223 225 227 233 240 243 246 246 242 239 239 241 243 242 237 231 229 231 235 238 242 246 247 246 246 246 245 244 243 242 242 242 242 241 241 241 241 241 243 244 246 247 249 251 252 253 253 251 251 251 252 251 250 248 248 248 248 246 244 244 246 249 251 254 257 259 260 259 258
223 225 225 225 230 234 230 228 231 232 230 227 226 228 228 224 223 223 223 223 221 219 218 219 220 221 222 226 229 231 231 231 231 229 226 227 230 233 237 240 242 243 245 247 246 243 241 241 240 240 241 240 240 241 243 245 249 251 252 254 256 257 258 259 258 257 256 255 254 254 254 254 254 254 252 249 246 246 249 252 257 262 265 266 265 264 262
230 231 231 233 237 240 239 239 240 239 237 236 235 236 236 233 230 230 229 227 225 219 212 206 205 208 212 215 218 219 220 221 223 226 227 228 230 231 232 232 232 234 237 239 239 238 238 237 237 237 237 237 239 241 244 247 250 252 254 257 260 261 261 260 260 259 258 257 257 256 256 256 257 257 257 256 256 258 261 264 266 269 271 270 268 265 264
237 237 236 236 239 242 244 246 247 247 245 242 242 244 244 242 239 237 235 232 229 224 218 214 213 215 219 221 222 223 224 225 226 227 230 231 232 234 235 234 233 232 232 232 233 234 235 235 235 235 237 238 240 243 245 248 250 252 254 257 259 259 259 258 259 259 259 258 258 258 258 258 258 259 259 260 261 263 266 268 269 270 271 270 269 267 266
247 246 243 241 241 243 246 249 251 252 250 247 245 246 248 248 247 245 243 240 236 232 229 227 225 225 226 228 229 230 232 234 235 234 235 236 237 238 239 239 237 236 235 235 236 238 238 239 239 240 241 243 245 246 248 250 251 253 254 256 257 258 258 257 257 257 258 259 259 259 259 260 260 260 261 262 263 264 265 267 268 270 271 272 271 271 270
252 252 251 249 247 247 249 251 254 256 256 253 251 250 251 251 251 251 251 250 248 246 243 241 238 236 234 233 233 234 235 237 240 241 241 242 244 245 246 245 243 242 241 242 243 245 246 247 247 247 248 248 249 250 251 251 252 253 254 255 256 257 258 258 259 259 260 261 262 262 263 263 263 264 264 265 266 267 268 269 271 271 272 273 273 273 273
257 256 254 253 253 253 253 254 256 258 260 259 257 255 253 253 253 252 252 252 253 254 254 253 252 250 248 244 242 241 240 240 241 242 243 243 245 246 248 249 249 249 249 249 250 251 253 253 254 254 255 254 254 253 253 254 254 255 256 257 258 259 260 261 262 263 264 265 265 266 267 267 267 267 268 268 269 269 270 271 271 272 272 272 273 273 273
265 262 260 259 259 260 260 260 261 262 263 264 263 262 259 257 256 256 255 253 253 253 253 254 254 254 253 252 250 249 248 248 249 249 249 249 249 249 250 251 253 254 255 255 256 257 257 258 259 260 260 260 259 259 258 258 259 260 261 262 263 264 265 265 266 266 267 267 267 268 268 269 269 269 269 269 269 269 269 270 270 271 272 272 273 273 274
284 276 271 269 266 265 266 266 266 266 267 267 268 267 267 264 262 260 260 259 258 257 256 255 255 254 253 253 252 252 252 252 253 255 256 256 257 257 257 256 257 257 259 260 261 262 262 263 263 263 263 263 262 262 262 262 262 263 264 264 265 266 266 266 266 266 267 267 267 267 268 268 269 269 269 268 268 269 269 270 270 271 272 273 273 274 275
305 295 287 281 277 275 272 271 271 273 273 272 272 272 272 271 269 267 265 263 262 262 261 260 259 259 258 257 256 256 256 256 256 257 258 259 260 261 262 262 262 262 262 263 264 264 265 265 266 266 267 268 268 267 267 267 267 267 267 268 268 268 268 268 268 268 268 269 269 269 269 269 270 270 270 271 271 271 272 272 273 274 274 275 276 276 277
315 305 298 293 290 288 285 283 282 282 281 279 278 277 275 274 273 272 271 269 266 265 265 264 264 263 263 262 262 261 261 261 261 260 261 261 262 263 264 264 265 265 265 266 266 267 267 267 268 269 270 271 271 272 272 272 273 273 274 274 275 275 274 274 274 274 274 274 274 274 274 274 274 274 275 275 276 276 276 276 277 277 278 278 278 279 279
317 311 307 304 302 300 298 296 294 293 291 289 287 284 282 280 277 275 273 272 270 268 266 265 265 265 265 265 264 264 263 263 263 263 263 263 264 265 265 266 267 268 268 269 269 269 269 270 270 271 272 272 272 273 273 274 274 275 276 276 276 276 276 276 276 276 276 276 276 276 276 276 277 277 277 278 279 279 279 279 279 279 279 280 280 281 281
317 312 308 304 303 302 301 299 298 296 294 293 291 289 287 285 283 280 278 275 273 272 270 268 266 265 265 264 264 264 263 263 262 262 262 262 263 263 264 265 266 267 268 269 270 270 270 271 271 272 273 273 274 274 274 274 274 275 276 276 276 276 277 277 277 277 277 277 277 278 278 278 278 279 279 280 280 281 281 282 283 283 283 283 283 283 283
314 310 307 304 303 302 300 299 299 297 296 294 292 290 288 286 284 282 280 278 276 274 272 271 270 268 267 266 265 264 263 262 261 261 261 261 261 261 262 263 264 264 265 266 267 269 269 270 270 271 271 272 273 274 274 275 275 276 276 276 277 277 278 278 278 278 279 279 279 279 280 280 280 281 281 281 281 282 283 284 285 285 286 286 285 284 284
307 306 305 303 303 302 301 301 301 300 299 297 295 292 289 287 285 282 280 279 277 276 274 273 271 270 269 268 266 265 264 263 262 262 261 260 260 260 261 261 262 263 264 265 266 267 267 268 269 270 270 271 272 273 274 274 275 276 276 276 277 277 278 278 279 279 279 280 280 280 281 281 281 282 282 282 282 283 283 284 286 286 287 287 286 286 286
305 305 305 305 305 305 306 306 306 305 303 300 298 296 293 291 288 286 284 282 280 279 277 275 273 271 270 268 267 266 266 265 264 263 262 261 261 260 260 260 260 261 262 262 263 264 265 266 266 267 268 269 270 271 272 273 273 274 274 275 275 276 276 277 277 278 278 279 279 280 280 281 281 281 282 282 283 283 284 286 286 287 287 287 287 288 288
307 307 307 307 308 309 310 311 311 310 308 306 303 300 298 295 293 290 288 285 283 281 279 277 275 273 271 270 268 267 266 265 265 264 263 263 262 262 261 261 261 261 261 261 262 263 263 264 264 265 266 267 268 268 269 270 271 271 272 273 273 274 274 275 275 276 277 277 278 278 279 280 281 281 281 282 282 284 285 285 286 286 287 287 288 288 288
308 309 309 309 309 310 310 311 311 311 310 309 307 304 301 299 295 292 289 286 283 281 279 277 276 274 273 271 270 269 268 266 265 264 263 263 263 262 263 263 262 262 262 262 262 263 263 263 263 264 265 266 266 266 267 268 268 268 269 270 271 271 272 272 273 274 275 276 277 277 278 279 279 279 279 280 281 282 283 284 284 285 286 286 287 287 288
311 311 311 311 311 311 311 311 311 310 309 308 306 305 303 300 298 295 291 287 283 280 278 278 277 277 276 275 274 273 271 269 267 265 264 263 262 262 262 262 262 262 262 262 262 262 263 263 263 263 264 264 265 265 266 266 266 267 267 268 268 269 270 271 272 274 275 276 277 277 277 277 276 275 275 277 279 280 281 282 283 284 285 285 286 287 288
314 314 315 315 315 314 314 314 314 312 310 307 306 304 304 303 301 298 294 290 286 283 282 282 282 282 281 280 279 278 276 273 271 269 267 265 264 262 261 261 260 260 260 259 259 260 260 260 261 261 262 263 263 264 264 265 265 266 266 267 268 269 270 271 272 273 274 274 274 274 273 272 272 272 273 275 277 279 280 281 282 284 284 285 287 288 288
317 318 319 319 319 318 318 319 317 315 312 309 307 307 307 306 304 300 296 292 289 287 287 287 286 286 286 286 285 284 281 278 275 272 269 268 266 264 263 261 260 259 258 257 257 257 257 258 259 259 260 261 261 262 263 264 265 265 266 267 268 269 270 271 272 272 272 271 270 269 268 267 267 268 271 273 276 278 280 282 283 284 285 286 287 288 289
321 322 322 323 323 323 323 323 320 317 314 311 310 310 310 308 304 299 295 293 291 290 290 290 290 290 291 291 291 291 290 285 280 275 271 268 266 264 262 261 260 259 258 257 256 256 256 256 256 257 257 258 259 260 261 262 263 264 265 266 267 267 268 269 269 268 268 266 265 263 263 262 264 266 268 271 275 278 280 283 285 286 287 288 288 289 289
323 324 326 327 327 327 327 325 322 318 315 312 311 311 311 310 305 299 294 293 292 291 290 290 291 291 292 292 293 294 294 291 286 281 276 271 267 264 261 260 259 259 258 257 256 256 255 255 255 254 255 256 256 257 258 259 260 261 262 264 265 265 265 265 264 263 261 260 259 258 259 261 263 266 269 272 276 279 282 284 286 287 288 289 289 289 289
325 327 329 331 331 330 330 328 324 320 316 313 312 311 310 309 307 302 296 292 289 288 286 287 288 289 289 290 291 293 294 293 289 284 280 276 271 267 264 261 259 258 257 257 256 255 254 254 253 253 253 253 254 255 256 257 258 259 260 261 261 261 260 259 257 255 255 254 255 256 259 261 264 267 271 274 278 280 282 285 287 288 289 290 291 291 291
327 330 333 334 334 333 332 330 326 323 319 315 313 310 307 306 306 305 301 295 290 286 284 285 286 286 286 285 287 290 293 293 291 287 284 280 276 271 267 264 260 257 256 256 256 255 254 253 253 252 252 251 252 252 253 254 255 256 257 257 257 256 255 252 250 249 250 252 254 257 260 262 264 268 271 274 276 280 284 287 290 291 293 294 294 294 293
328 332 335 337 337 336 334 332 328 324 320 317 315 311 307 303 302 303 303 299 293 288 286 285 286 287 285 284 285 287 290 291 291 290 288 284 280 275 271 266 262 258 255 254 254 254 254 253 252 251 251 251 251 251 251 252 252 253 253 253 253 251 249 246 245 246 248 251 254 256 258 260 263 266 268 271 276 283 288 293 295 296 298 298 298 297 295
330 334 336 339 340 338 335 332 329 325 321 319 316 313 310 305 300 300 301 299 295 290 288 287 287 287 285 283 284 286 288 290 291 290 288 285 282 279 274 270 266 261 257 254 253 252 252 251 250 249 249 249 250 250 250 250 250 250 250 249 247 245 244 242 243 245 247 250 251 253 255 258 261 264 268 274 282 289 293 296 298 301 302 302 301 299 296
331 334 336 339 341 340 337 334 330 326 323 321 318 316 312 307 300 297 297 297 293 289 288 290 292 291 289 286 285 286 288 289 290 289 287 286 285 283 280 276 272 266 260 256 253 251 250 250 249 248 247 247 247 248 249 249 249 248 247 245 243 241 240 240 242 243 245 247 249 252 255 258 261 266 273 281 287 292 295 297 300 303 305 304 302 300 298
331 333 336 339 341 341 338 335 331 327 325 323 321 319 316 310 302 296 294 293 288 282 281 288 295 296 294 289 287 286 287 288 289 289 289 289 287 285 283 281 278 273 267 261 257 254 252 250 250 249 249 248 247 247 246 246 246 244 243 241 239 238 238 239 240 241 243 245 249 253 256 260 264 271 278 284 289 292 294 298 302 305 306 305 305 304 302
330 333 335 338 340 341 339 335 332 329 327 325 323 321 317 312 306 299 293 288 282 276 276 285 294 296 293 290 288 287 287 288 290 292 294 293 290 287 284 282 280 278 274 268 262 259 257 255 254 252 251 251 250 249 246 243 241 240 239 238 237 236 236 237 238 240 242 245 250 255 260 264 270 275 281 285 289 292 296 301 306 308 308 308 310 309 307
329 331 334 337 339 340 339 336 333 330 328 326 324 322 318 314 311 306 295 284 278 276 276 282 288 288 286 288 292 292 291 296 302 303 303 302 300 296 292 288 284 283 280 275 270 266 262 260 258 257 255 254 253 251 247 242 237 236 236 236 236 235 235 236 238 240 243 248 253 259 263 268 273 278 283 287 291 295 300 305 308 310 311 312 314 313 310
327 330 333 336 338 339 339 337 333 330 328 326 324 322 319 315 314 310 298 282 275 274 272 273 275 275 276 285 293 290 287 304 331 340 336 331 327 321 313 304 296 290 287 282 277 272 268 264 261 258 257 256 254 251 247 241 236 234 235 236 236 235 235 236 237 240 244 250 256 261 265 269 273 278 282 288 292 297 302 306 309 311 314 317 318 317 315
326 328 331 335 336 337 338 337 333 329 327 325 323 321 318 316 315 311 298 279 270 266 262 259 262 264 267 275 284 282 274 282 308 329 341 346 346 342 338 334 327 317 306 296 287 279 273 268 263 259 257 256 254 251 246 240 236 236 236 236 236 236 237 237 238 241 245 251 256 260 263 267 272 276 282 287 293 298 303 307 310 312 316 320 321 320 319
324 327 330 333 335 336 336 336 333 329 325 323 320 318 316 314 313 311 299 278 264 258 255 254 257 260 262 267 275 278 276 277 284 295 306 318 326 329 330 333 336 336 332 324 313 299 285 275 268 262 257 255 254 251 245 240 238 237 237 237 237 238 238 238 238 240 244 249 253 257 261 265 270 275 280 286 292 297 303 307 309 313 318 323 324 323 323
324 327 329 331 333 334 335 334 331 327 324 320 318 316 313 310 309 308 301 281 262 254 254 256 259 260 259 261 267 274 276 277 280 283 286 290 297 305 310 312 316 322 326 326 325 321 310 295 279 267 259 255 252 248 242 238 237 237 238 239 239 239 237 236 236 238 241 245 249 253 258 262 267 273 278 284 289 296 301 305 308 312 318 324 327 327 326
324 325 327 329 331 332 332 331 329 326 322 318 315 313 312 308 306 305 301 289 270 258 256 260 263 263 260 260 265 271 274 275 277 278 278 279 281 287 293 296 298 301 307 312 315 317 317 312 301 282 265 254 249 246 242 239 237 239 242 242 240 237 234 232 232 235 238 242 246 250 254 259 263 269 274 280 286 292 297 301 305 309 316 323 328 330 329
322 323 325 327 328 329 329 329 327 324 321 317 313 310 308 306 304 301 299 294 283 271 264 263 264 264 262 262 265 267 269 269 271 273 275 276 276 277 281 286 288 289 293 298 303 305 306 307 307 302 287 268 254 248 246 245 242 241 241 241 239 236 233 232 232 234 237 240 243 247 252 256 260 264 270 275 281 286 291 296 301 306 311 318 325 329 329
Height
5661 5662 5663 5664 5666 5666 5668 5670 5672 5673 5675 5676 5678 5679 5680 5682 5683 5684 5686 5687 5688 5690 5692 5693 5694 5694 5695 5696 5697 5697 5697 5698 5699 5700 5701 5702 5702 5701 5701 5701 5701 5701 5701 5701 5702 5703 5706 5711 5714 5715 5716 5719 5721 5722 5721 5722 5726 5729 5730 5732 5733 5735 5736 5737 5739 5741 5742 5743 5744 5745 5745 5746 5747 5748 5749 5750 5751 5752 5752 5753 5754 5755 5756 5757 5757 5758 5759
5658 5659 5660 5661 5662 5663 5664 5666 5668 5670 5672 5673 5675 5676 5677 5678 5680 5681 5683 5684 5686 5688 5689 5690 5691 5692 5693 5694 5694 5695 5695 5695 5696 5698 5698 5699 5699 5698 5698 5698 5698 5698 5698 5698 5697 5699 5703 5707 5710 5712 5714 5716 5718 5719 5719 5720 5723 5726 5728 5729 5731 5732 5734 5735 5736 5738 5740 5740 5741 5741 5742 5742 5744 5745 5746 5747 5748 5749 5750 5750 5751 5752 5753 5754 5755 5755 5756
5655 5657 5657 5658 5659 5659 5660 5662 5664 5667 5668 5670 5672 5673 5674 5676 5677 5678 5680 5682 5684 5685 5686 5687 5688 5689 5690 5691 5692 5692 5693 5693 5694 5695 5695 5696 5696 5696 5696 5695 5695 5696 5695 5695 5695 5697 5701 5704 5707 5709 5711 5713 5715 5716 5718 5719 5721 5723 5725 5727 5728 5730 5731 5732 5733 5735 5736 5737 5738 5739 5739 5740 5742 5743 5743 5744 5745 5746 5747 5748 5749 5749 5750 5751 5752 5753 5753
5652 5654 5655 5655 5656 5657 5657 5658 5661 5663 5665 5667 5668 5670 5671 5673 5674 5675 5677 5679 5681 5682 5683 5684 5685 5686 5687 5688 5689 5690 5690 5691 5691 5692 5693 5693 5693 5693 5694 5694 5694 5694 5693 5693 5693 5694 5698 5702 5705 5707 5709 5711 5712 5714 5715 5717 5718 5720 5722 5724 5726 5727 5728 5730 5731 5732 5734 5735 5736 5738 5738 5739 5740 5740 5741 5741 5742 5743 5744 5745 5746 5747 5747 5748 5749 5750 5751
5650 5651 5652 5652 5653 5654 5655 5656 5658 5660 5662 5664 5665 5667 5668 5670 5671 5673 5674 5676 5677 5679 5680 5681 5682 5683 5684 5685 5686 5687 5688 5688 5689 5689 5690 5690 5691 5691 5692 5692 5692 5692 5693 5693 5693 5694 5697 5700 5703 5705 5707 5708 5710 5711 5713 5715 5715 5717 5719 5721 5723 5725 5726 5727 5728 5730 5732 5733 5734 5735 5736 5736 5737 5738 5738 5739 5740 5741 5742 5742 5743 5744 5745 5745 5746 5747 5748
5647 5648 5649 5650 5651 5652 5653 5654 5656 5657 5659 5660 5661 5663 5664 5666 5668 5670 5671 5672 5674 5675 5676 5677 5679 5680 5681 5682 5683 5684 5685 5686 5686 5686 5687 5688 5688 5689 5690 5690 5691 5691 5692 5692 5693 5695 5696 5697 5700 5703 5704 5706 5708 5709 5710 5712 5713 5714 5716 5718 5720 5722 5723 5724 5726 5727 5729 5730 5731 5732 5732 5733 5734 5735 5735 5736 5738 5738 5739 5740 5740 5741 5742 5743 5743 5744 5745
5644 5646 5646 5647 5649 5650 5651 5652 5653 5654 5655 5656 5657 5659 5660 5662 5664 5666 5668 5669 5671 5672 5673 5674 5675 5676 5677 5679 5680 5681 5682 5682 5682 5683 5684 5685 5685 5686 5687 5688 5689 5690 5690 5691 5692 5694 5694 5695 5698 5701 5702 5703 5705 5706 5707 5709 5710 5712 5713 5715 5717 5719 5721 5722 5724 5725 5726 5727 5728 5729 5730 5730 5731 5732 5733 5733 5734 5735 5736 5737 5737 5738 5739 5739 5740 5741 5742
5641 5643 5644 5645 5646 5647 5648 5649 5650 5651 5652 5653 5654 5655 5657 5659 5661 5663 5665 5666 5667 5669 5670 5671 5672 5673 5674 5675 5677 5678 5679 5679 5679 5680 5680 5681 5682 5683 5685 5686 5686 5687 5688 5689 5691 5692 5693 5694 5696 5698 5700 5702 5704 5704 5705 5707 5708 5710 5711 5713 5714 5716 5718 5719 5721 5722 5723 5724 5725 5726 5726 5727 5727 5728 5729 5730 5731 5732 5733 5733 5734 5735 5736 5736 5737 5737 5738
5639 5640 5641 5642 5643 5645 5646 5646 5647 5648 5648 5650 5651 5652 5653 5655 5657 5659 5661 5663 5664 5665 5666 5668 5669 5670 5671 5673 5674 5675 5675 5675 5676 5677 5677 5678 5679 5681 5682 5682 5683 5684 5686 5687 5688 5689 5691 5692 5694 5696 5697 5699 5702 5703 5703 5705 5707 5708 5710 5711 5712 5713 5714 5716 5717 5719 5720 5721 5721 5722 5722 5723 5724 5725 5726 5727 5728 5729 5730 5730 5731 5732 5732 5733 5733 5734 5734
5636 5637 5638 5640 5641 5642 5643 5644 5645 5645 5645 5646 5647 5648 5650 5651 5653 5655 5657 5659 5660 5661 5662 5664 5665 5667 5669 5670 5671 5671 5672 5672 5673 5674 5675 5675 5676 5677 5678 5679 5680 5681 5682 5683 5685 5687 5688 5690 5692 5694 5695 5697 5699 5700 5701 5703 5704 5706 5708 5710 5710 5711 5712 5713 5714 5715 5716 5717 5718 5718 5720 5721 5722 5723 5724 5725 5725 5725 5726 5727 5727 5728 5728 5729 5730 5730 5731
5633 5634 5636 5637 5638 5640 5641 5642 5642 5643 5643 5643 5644 5646 5647 5648 5650 5652 5653 5655 5657 5658 5659 5660 5662 5664 5665 5667 5668 5668 5668 5669 5669 5670 5672 5673 5672 5673 5674 5676 5677 5678 5679 5680 5682 5684 5685 5688 5690 5691 5693 5694 5696 5697 5698 5699 5701 5702 5704 5706 5707 5708 5709 5710 5711 5712 5714 5714 5715 5715 5716 5718 5719 5720 5721 5722 5722 5721 5722 5723 5724 5724 5724 5725 5725 5726 5727
5631 5632 5633 5634 5636 5637 5638 5639 5640 5641 5641 5641 5642 5643 5644 5645 5646 5648 5650 5651 5653 5654 5656 5657 5659 5660 5662 5663 5664 5665 5665 5665 5665 5666 5667 5668 5669 5669 5671 5672 5673 5675 5676 5677 5679 5681 5682 5684 5686 5688 5690 5691 5693 5694 5695 5696 5698 5699 5700 5702 5703 5704 5706 5707 5708 5708 5710 5711 5712 5712 5712 5714 5715 5716 5717 5717 5718 5718 5717 5718 5719 5719 5720 5720 5720 5720 5721
5629 5630 5631 5632 5633 5635 5636 5637 5638 5639 5640 5640 5640 5641 5642 5643 5644 5645 5646 5647 5649 5650 5652 5653 5655 5657 5658 5659 5660 5661 5661 5661 5661 5661 5662 5664 5665 5666 5667 5669 5670 5671 5672 5674 5676 5678 5679 5681 5682 5684 5686 5688 5690 5691 5692 5693 5694 5696 5697 5698 5699 5701 5702 5703 5704 5705 5705 5706 5708 5708 5709 5710 5711 5711 5712 5712 5713 5714 5713 5714 5715 5715 5716 5717 5716 5715 5715
5627 5628 5629 5630 5631 5632 5633 5634 5635 5637 5638 5639 5639 5640 5640 5641 5642 5642 5643 5644 5645 5646 5648 5649 5651 5653 5654 5655 5656 5656 5657 5657 5656 5656 5657 5659 5661 5662 5664 5665 5667 5668 5669 5671 5673 5675 5676 5677 5679 5680 5681 5683 5685 5687 5688 5690 5691 5692 5693 5694 5695 5697 5699 5700 5701 5701 5701 5702 5703 5704 5705 5706 5706 5707 5707 5707 5708 5709 5709 5710 5710 5710 5711 5712 5712 5711 5711
5626 5627 5628 5629 5630 5630 5631 5632 5633 5634 5636 5637 5638 5638 5638 5639 5640 5640 5641 5642 5642 5643 5644 5645 5647 5648 5650 5651 5652 5653 5653 5653 5653 5653 5654 5656 5657 5659 5660 5662 5664 5665 5667 5668 5670 5671 5672 5674 5675 5676 5677 5678 5680 5682 5683 5685 5686 5688 5689 5690 5691 5692 5694 5695 5697 5697 5697 5698 5699 5700 5700 5701 5702 5702 5702 5703 5703 5703 5704 5705 5705 5706 5706 5706 5707 5707 5707
5624 5625 5626 5628 5629 5629 5630 5630 5631 5632 5633 5635 5636 5637 5636 5637 5638 5638 5639 5640 5640 5641 5642 5643 5644 5645 5646 5648 5649 5650 5651 5651 5652 5652 5653 5654 5655 5656 5658 5659 5660 5662 5663 5665 5666 5667 5668 5670 5671 5672 5673 5674 5676 5677 5679 5680 5681 5683 5684 5685 5687 5688 5689 5691 5692 5693 5694 5694 5695 5696 5696 5697 5697 5697 5697 5698 5698 5698 5698 5699 5700 5700 5700 5701 5701 5701 5701
5623 5624 5626 5627 5628 5628 5629 5629 5630 5631 5631 5633 5634 5634 5635 5636 5636 5636 5637 5637 5638 5639 5640 5640 5641 5642 5643 5644 5645 5647 5648 5649 5650 5650 5652 5653 5653 5654 5655 5656 5657 5658 5660 5661 5662 5663 5664 5666 5667 5668 5669 5670 5672 5673 5674 5675 5676 5677 5679 5680 5681 5683 5684 5685 5687 5688 5689 5690 5690 5691 5691 5692 5692 5692 5692 5692 5692 5692 5692 5693 5693 5694 5694 5694 5695 5695 5694
5623 5624 5625 5626 5627 5627 5628 5628 5628 5629 5630 5631 5631 5632 5633 5633 5634 5634 5635 5635 5636 5637 5637 5638 5638 5639 5640 5641 5642 5643 5645 5646 5647 5648 5649 5650 5651 5652 5653 5654 5654 5655 5656 5657 5658 5659 5661 5662 5663 5664 5665 5666 5667 5668 5669 5671 5672 5673 5674 5675 5676 5677 5678 5679 5681 5682 5683 5684 5685 5686 5686 5686 5687 5687 5687 5687 5687 5687 5687 5687 5687 5687 5687 5687 5688 5688 5687
5622 5623 5624 5625 5626 5626 5626 5627 5627 5628 5628 5629 5630 5630 5630 5631 5631 5632 5632 5633 5634 5634 5635 5635 5636 5636 5637 5638 5638 5640 5641 5642 5643 5644 5645 5646 5648 5648 5649 5650 5651 5652 5652 5653 5654 5655 5656 5658 5659 5660 5661 5662 5663 5664 5665 5666 5667 5668 5669 5670 5671 5672 5673 5674 5675 5676 5677 5678 5679 5680 5680 5681 5681 5681 5681 5682 5682 5682 5681 5681 5681 5681 5681 5681 5680 5680 5679
5621 5622 5623 5624 5624 5625 5625 5625 5625 5626 5627 5627 5628 5628 5628 5628 5628 5629 5630 5630 5631 5632 5632 5633 5633 5633 5634 5634 5635 5636 5637 5638 5639 5640 5641 5642 5643 5644 5645 5646 5647 5648 5649 5650 5651 5651 5652 5653 5654 5655 5656 5657 5659 5660 5661 5662 5663 5664 5665 5665 5666 5667 5668 5669 5669 5670 5671 5672 5673 5673 5674 5674 5675 5675 5675 5675 5676 5675 5675 5675 5674 5674 5673 5673 5672 5672 5671
5620 5621 5622 5622 5623 5623 5623 5624 5624 5624 5624 5625 5626 5626 5626 5626 5626 5626 5627 5627 5628 5628 5629 5630 5630 5631 5631 5631 5632 5633 5633 5634 5635 5636 5637 5638 5639 5639 5640 5641 5642 5643 5644 5645 5646 5647 5648 5649 5650 5651 5651 5652 5654 5655 5656 5657 5658 5659 5660 5660 5661 5662 5663 5663 5664 5665 5665 5666 5667 5667 5667 5667 5668 5668 5668 5668 5668 5668 5668 5667 5666 5666 5666 5665 5664 5664 5663
5619 5620 5620 5620 5621 5621 5621 5621 5622 5622 5622 5622 5622 5623 5623 5623 5623 5623 5624 5624 5624 5625 5625 5626 5626 5627 5627 5628 5628 5629 5629 5630 5631 5632 5633 5634 5634 5635 5635 5636 5637 5638 5639 5640 5641 5642 5643 5644 5645 5645 5646 5647 5648 5650 5651 5652 5653 5653 5654 5655 5655 5657 5657 5658 5659 5659 5660 5661 5661 5661 5660 5661 5661 5661 5661 5661 5661 5661 5661 5660 5660 5659 5659 5658 5657 5656 5655
5618 5618 5618 5619 5619 5619 5619 5619 5620 5620 5620 5620 5619 5620 5620 5620 5620 5620 5620 5621 5621 5621 5621 5622 5622 5622 5623 5624 5624 5625 5626 5626 5626 5627 5628 5629 5629 5630 5631 5631 5632 5633 5634 5635 5636 5637 5638 5639 5639 5640 5640 5641 5642 5644 5645 5646 5647 5647 5647 5648 5649 5650 5651 5652 5652 5653 5654 5654 5655 5654 5654 5653 5653 5654 5654 5654 5654 5654 5654 5653 5653 5653 5651 5650 5649 5648 5646
5617 5617 5618 5618 5618 5618 5618 5618 5618 5618 5618 5617 5617 5617 5617 5617 5617 5617 5617 5617 5617 5617 5618 5618 5618 5618 5618 5619 5620 5620 5621 5622 5622 5622 5623 5623 5624 5624 5625 5626 5626 5627 5628 5628 5629 5630 5631 5632 5633 5634 5634 5635 5636 5638 5639 5640 5640 5641 5641 5642 5643 5644 5644 5645 5646 5647 5647 5647 5648 5648 5647 5647 5646 5646 5646 5646 5646 5646 5646 5645 5645 5645 5643 5642 5640 5638 5637
5617 5617 5617 5617 5617 5617 5617 5617 5617 5616 5616 5616 5615 5615 5615 5615 5614 5614 5614 5614 5614 5614 5613 5613 5613 5613 5613 5614 5614 5615 5615 5616 5617 5617 5617 5618 5618 5618 5619 5619 5620 5621 5621 5622 5622 5623 5624 5625 5626 5627 5627 5628 5629 5631 5632 5632 5633 5633 5634 5634 5635 5636 5637 5638 5638 5639 5639 5640 5640 5640 5640 5639 5638 5637 5636 5636 5636 5637 5637 5636 5636 5635 5633 5632 5630 5628 5627
5616 5616 5616 5616 5616 5616 5616 5616 5615 5615 5615 5614 5614 5613 5613 5612 5612 5612 5611 5611 5610 5610 5609 5609 5609 5609 5609 5609 5609 5609 5610 5610 5611 5611 5611 5612 5612 5612 5613 5613 5614 5614 5615 5616 5616 5617 5618 5619 5619 5619 5620 5621 5622 5623 5623 5624 5624 5624 5625 5625 5626 5627 5628 5629 5629 5630 5630 5630 5630 5630 5630 5630 5629 5628 5627 5626 5625 5625 5626 5626 5626 5625 5624 5622 5621 5619 5618
5616 5616 5616 5615 5615 5615 5614 5614 5614 5613 5612 5612 5611 5610 5610 5609 5609 5608 5608 5607 5607 5606 5606 5605 5605 5604 5604 5604 5604 5604 5604 5605 5605 5605 5606 5606 5606 5607 5607 5607 5607 5608 5609 5610 5610 5610 5611 5612 5613 5613 5613 5614 5615 5616 5616 5617 5617 5617 5617 5618 5618 5619 5620 5621 5621 5621 5621 5622 5622 5622 5622 5621 5620 5619 5619 5617 5616 5614 5614 5615 5616 5616 5615 5614 5612 5611 5609
5615 5615 5615 5614 5614 5613 5613 5612 5611 5610 5610 5609 5608 5607 5606 5605 5604 5604 5603 5603 5602 5602 5601 5601 5601 5600 5600 5599 5599 5599 5599 5599 5599 5600 5600 5601 5601 5601 5601 5602 5602 5602 5603 5603 5604 5604 5605 5606 5607 5607 5607 5608 5609 5610 5610 5611 5611 5611 5611 5611 5612 5612 5613 5614 5614 5614 5614 5614 5614 5614 5613 5613 5612 5611 5610 5609 5608 5607 5606 5605 5606 5606 5607 5606 5605 5603 5601
5614 5613 5613 5612 5612 5611 5610 5609 5608 5607 5606 5605 5604 5603 5602 5600 5599 5599 5598 5597 5597 5596 5596 5595 5595 5595 5594 5594 5594 5593 5593 5593 5593 5594 5594 5595 5595 5596 5596 5596 5597 5597 5598 5598 5598 5598 5599 5600 5600 5601 5601 5602 5603 5604 5604 5605 5605 5605 5605 5605 5605 5606 5606 5606 5606 5606 5607 5607 5607 5606 5606 5606 5605 5604 5603 5602 5601 5601 5600 5599 5599 5599 5599 5598 5598 5596 5595
5612 5611 5610 5610 5609 5608 5607 5606 5605 5603 5602 5601 5599 5598 5597 5595 5594 5593 5592 5591 5591 5590 5589 5589 5589 5588 5588 5587 5587 5587 5587 5587 5588 5588 5589 5589 5589 5590 5590 5591 5591 5592 5592 5592 5592 5592 5593 5594 5594 5595 5595 5596 5597 5598 5598 5599 5599 5599 5599 5599 5599 5600 5600 5600 5600 5600 5601 5601 5601 5600 5600 5599 5599 5598 5597 5596 5596 5595 5594 5594 5593 5593 5592 5592 5591 5590 5589
5610 5609 5608 5607 5605 5604 5603 5602 5600 5599 5597 5596 5595 5593 5592 5590 5589 5587 5586 5585 5584 5584 5583 5582 5582 5581 5581 5581 5580 5580 5580 5580 5581 5582 5582 5582 5583 5583 5584 5585 5585 5586 5586 5587 5587 5587 5588 5589 5589 5589 5590 5591 5592 5592 5593 5593 5594 5594 5594 5594 5594 5595 5595 5595 5595 5595 5596 5596 5596 5595 5595 5594 5593 5593 5592 5591 5591 5590 5590 5589 5589 5588 5587 5586 5585 5584 5583
5607 5606 5605 5603 5602 5600 5598 5596 5594 5593 5591 5590 5589 5587 5586 5584 5583 5582 5580 5579 5578 5578 5577 5576 5576 5575 5575 5574 5573 5573 5573 5574 5574 5574 5574 5575 5576 5576 5577 5578 5579 5579 5580 5581 5581 5581 5582 5584 5584 5584 5585 5586 5587 5587 5588 5589 5589 5589 5589 5589 5589 5590 5590 5590 5591 5591 5591 5591 5591 5591 5590 5590 5589 5588 5587 5586 5586 5586 5586 5585 5584 5583 5582 5581 5580 5579 5578
5604 5603 5601 5600 5598 5596 5594 5592 5590 5588 5586 5584 5582 5581 5580 5578 5577 5576 5575 5574 5573 5572 5572 5571 5570 5570 5569 5568 5568 5567 5567 5567 5567 5567 5567 5568 5569 5570 5570 5571 5572 5572 5573 5574 5575 5575 5576 5578 5578 5579 5580 5581 5582 5582 5583 5584 5584 5584 5584 5585 5585 5585 5586 5586 5586 5587 5587 5587 5587 5586 5586 5585 5584 5584 5583 5582 5582 5582 5582 5581 5580 5580 5579 5578 5576 5576 5575
5601 5600 5599 5597 5595 5593 5590 5588 5586 5583 5581 5579 5577 5575 5574 5572 5571 5570 5570 5569 5568 5568 5567 5566 5566 5565 5564 5564 5563 5562 5562 5562 5562 5562 5562 5562 5563 5564 5564 5565 5565 5566 5567 5568 5568 5569 5570 5572 5572 5573 5574 5575 5576 5577 5578 5578 5579 5579 5579 5580 5581 5581 5581 5582 5582 5582 5582 5582 5582 5582 5582 5581 5581 5580 5579 5579 5579 5579 5578 5577 5577 5576 5575 5574 5573 5573 5572
5599 5597 5596 5594 5591 5589 5586 5584 5581 5578 5576 5574 5572 5570 5569 5568 5567 5566 5565 5565 5564 5564 5563 5563 5562 5561 5560 5560 5559 5558 5558 5557 5557 5557 5557 5557 5558 5559 5559 5560 5560 5560 5561 5562 5563 5564 5565 5566 5567 5568 5569 5570 5571 5572 5573 5573 5574 5574 5575 5575 5576 5576 5577 5577 5578 5578 5578 5578 5578 5578 5578 5577 5577 5576 5576 5576 5576 5575 5574 5574 5573 5573 5572 5571 5570 5570 5569
5596 5594 5592 5590 5587 5585 5582 5579 5576 5574 5571 5570 5568 5567 5565 5564 5563 5562 5562 5561 5561 5560 5560 5559 5558 5558 5557 5556 5556 5555 5554 5554 5553 5553 5553 5553 5553 5554 5554 5555 5555 5555 5556 5557 5558 5559 5560 5561 5562 5563 5563 5564 5566 5567 5568 5568 5569 5569 5570 5571 5571 5572 5572 5573 5573 5573 5574 5574 5574 5574 5574 5574 5573 5573 5573 5572 5572 5572 5571 5571 5570 5570 5569 5568 5567 5567 5565
5593 5591 5589 5586 5583 5580 5577 5574 5572 5569 5568 5566 5565 5564 5563 5562 5560 5559 5559 5558 5558 5557 5557 5556 5555 5555 5554 5553 5553 5552 5551 5550 5550 5549 5549 5549 5549 5550 5550 5550 5550 5551 5552 5552 5553 5554 5555 5556 5557 5558 5559 5560 5561 5562 5563 5564 5564 5565 5565 5566 5567 5568 5568 5568 5569 5569 5570 5570 5570 5571 5571 5570 5570 5570 5570 5569 5569 5569 5568 5568 5567 5567 5566 5565 5564 5563 5562
5590 5588 5586 5583 5580 5577 5573 5571 5568 5566 5565 5563 5562 5561 5560 5559 5558 5557 5556 5555 5555 5554 5554 5553 5553 5552 5551 5551 5550 5549 5549 5548 5547 5546 5546 5546 5546 5546 5546 5546 5547 5547 5548 5548 5549 5550 5551 5552 5553 5554 5554 5556 5557 5558 5559 5560 5560 5561 5561 5562 5563 5564 5564 5565 5565 5566 5566 5567 5567 5567 5567 5567 5567 5567 5567 5566 5566 5566 5565 5565 5564 5564 5563 5562 5561 5560 5559
5588 5586 5583 5580 5577 5574 5571 5568 5566 5564 5563 5561 5560 5559 5558 5556 5555 5554 5553 5552 5552 5551 5551 5550 5550 5550 5549 5548 5548 5547 5546 5545 5544 5544 5543 5543 5542 5542 5542 5543 5543 5544 5544 5545 5545 5546 5547 5548 5549 5549 5550 5551 5552 5553 5555 5555 5556 5557 5558 5558 5559 5560 5561 5561 5562 5562 5563 5563 5564 5564 5564 5564 5564 5564 5564 5564 5563 5563 5563 5562 5562 5561 5560 5559 5558 5557 5556
5586 5583 5580 5577 5574 5571 5568 5566 5564 5562 5561 5560 5558 5557 5555 5554 5553 5552 5551 5550 5549 5548 5548 5547 5547 5547 5546 5546 5545 5544 5544 5543 5542 5541 5540 5540 5540 5539 5539 5540 5540 5540 5541 5541 5542 5543 5543 5544 5545 5546 5547 5548 5549 5549 5551 5552 5552 5553 5554 5555 5555 5556 5557 5558 5559 5559 5560 5560 5561 5561 5561 5561 5561 5561 5561 5561 5561 5560 5560 5559 5559 5558 5557 5556 5555 5554 5553
5583 5581 5578 5575 5572 5569 5566 5564 5562 5560 5559 5558 5556 5555 5553 5552 5551 5549 5548 5547 5546 5546 5545 5545 5544 5544 5544 5543 5542 5542 5541 5540 5539 5539 5538 5537 5537 5537 5536 5537 5537 5537 5538 5538 5539 5539 5540 5541 5542 5542 5543 5544 5545 5546 5547 5548 5549 5549 5550 5551 5552 5553 5554 5555 5556 5556 5557 5558 5558 5558 5558 5558 5558 5558 5558 5558 5558 5558 5557 5557 5556 5555 5554 5553 5552 5550 5549
5581 5578 5576 5573 5570 5567 5565 5562 5560 5559 5557 5556 5555 5553 5552 5550 5548 5547 5546 5545 5544 5543 5543 5543 5542 5542 5541 5541 5540 5539 5539 5538 5537 5536 5536 5535 5534 5534 5534 5534 5534 5534 5535 5535 5536 5536 5537 5538 5538 5539 5540 5540 5541 5542 5543 5544 5545 5546 5547 5548 5549 5550 5551 5552 5553 5554 5554 5555 5555 5555 5556 5556 5556 5556 5556 5556 5555 5555 5554 5554 5553 5552 5551 5550 5548 5547 5546
5578 5576 5573 5571 5568 5565 5563 5560 5559 5557 5555 5554 5553 5551 5550 5548 5547 5545 5544 5543 5542 5542 5541 5541 5540 5540 5539 5538 5538 5537 5537 5536 5535 5534 5533 5533 5532 5532 5531 5531 5531 5532 5532 5532 5533 5533 5534 5535 5535 5536 5536 5537 5538 5539 5540 5541 5542 5543 5543 5544 5546 5547 5548 5549 5550 5551 5551 5552 5552 5553 5553 5553 5553 5553 5553 5553 5552 5552 5551 5551 5550 5549 5548 5546 5545 5544 5542
5575 5573 5571 5568 5566 5563 5561 5559 5557 5555 5553 5552 5550 5549 5548 5546 5545 5543 5542 5541 5540 5540 5540 5539 5539 5538 5537 5536 5536 5535 5535 5534 5533 5532 5531 5531 5530 5530 5529 5529 5529 5529 5529 5530 5530 5530 5531 5531 5532 5532 5533 5534 5534 5535 5536 5537 5539 5539 5540 5541 5543 5544 5545 5546 5547 5548 5548 5549 5549 5550 5550 5550 5551 5551 5550 5550 5549 5549 5549 5548 5547 5546 5545 5543 5542 5540 5539
5573 5571 5568 5566 5564 5561 5559 5557 5555 5553 5551 5550 5548 5547 5545 5544 5542 5541 5540 5539 5538 5538 5538 5538 5537 5536 5536 5535 5534 5533 5533 5532 5531 5530 5529 5529 5528 5528 5527 5527 5527 5527 5527 5527 5527 5528 5528 5528 5529 5529 5530 5531 5531 5532 5533 5534 5535 5536 5537 5538 5540 5541 5542 5543 5544 5545 5546 5546 5547 5547 5548 5548 5548 5548 5547 5547 5547 5546 5546 5545 5544 5543 5542 5540 5539 5537 5536
5571 5568 5566 5564 5562 5559 5557 5555 5553 5551 5549 5548 5546 5545 5543 5542 5540 5539 5538 5537 5537 5536 5536 5536 5535 5535 5534 5534 5533 5532 5532 5531 5530 5529 5528 5527 5526 5526 5526 5525 5525 5525 5525 5525 5525 5525 5525 5525 5526 5526 5527 5527 5528 5529 5530 5531 5532 5533 5534 5535 5537 5538 5539 5540 5541 5542 5543 5543 5544 5544 5545 5545 5545 5545 5544 5544 5544 5543 5543 5542 5541 5540 5539 5537 5536 5534 5532
5568 5566 5564 5562 5559 5557 5555 5553 5551 5549 5547 5545 5544 5543 5541 5540 5538 5537 5536 5535 5535 5534 5534 5534 5534 5533 5533 5532 5532 5531 5531 5530 5529 5528 5527 5526 5525 5525 5524 5524 5523 5523 5523 5522 5522 5522 5523 5523 5523 5523 5524 5524 5525 5526 5527 5528 5529 5530 5531 5533 5534 5535 5536 5537 5538 5539 5539 5540 5541 5541 5542 5542 5542 5542 5541 5541 5541 5540 5540 5539 5538 5537 5536 5535 5533 5531 5530
5565 5563 5561 5559 5557 5555 5552 5550 5548 5547 5545 5543 5542 5540 5539 5538 5537 5535 5534 5533 5533 5532 5532 5532 5532 5532 5532 5531 5531 5530 5530 5529 5528 5528 5527 5526 5525 5524 5524 5523 5522 5522 5521 5521 5520 5520 5520 5520 5520 5521 5521 5521 5522 5523 5524 5525 5526 5527 5528 5530 5531 5532 5533 5534 5534 5535 5536 5537 5538 5538 5538 5539 5539 5539 5539 5538 5538 5538 5537 5537 5536 5535 5534 5532 5531 5529 5528
5562 5560 5558 5556 5554 5552 5550 5548 5546 5544 5542 5541 5539 5538 5537 5536 5535 5533 5532 5532 5531 5531 5531 5530 5530 5530 5530 5530 5529 5529 5528 5528 5527 5527 5526 5525 5525 5524 5523 5522 5522 5521 5520 5520 5519 5518 5518 5518 5518 5518 5518 5519 5519 5520 5521 5522 5523 5524 5526 5527 5528 5528 5529 5530 5531 5532 5533 5533 5534 5535 5535 5535 5536 5536 5536 5536 5535 5535 5535 5534 5533 5532 5531 5530 5529 5528 5526
5559 5557 5555 5553 5551 5549 5547 5545 5543 5542 5540 5538 5537 5536 5535 5534 5532 5531 5530 5530 5529 5529 5529 5528 5528 5528 5528 5528 5527 5527 5526 5526 5525 5525 5525 5524 5523 5523 5522 5522 5521 5520 5519 5519 5518 5517 5516 5516 5516 5516 5516 5516 5517 5517 5518 5519 5520 5521 5522 5523 5524 5525 5525 5526 5527 5528 5529 5530 5531 5531 5532 5532 5533 5533 5533 5533 5533 5532 5532 5532 5531 5530 5529 5528 5527 5526 5525
5556 5554 5552 5550 5549 5547 5545 5543 5541 5539 5537 5536 5535 5533 5532 5531 5530 5529 5528 5527 5527 5526 5526 5526 5526 5525 5525 5525 5525 5525 5524 5524 5523 5523 5522 5522 5521 5521 5521 5520 5519 5519 5518 5517 5517 5516 5515 5515 5514 5514 5514 5514 5514 5515 5515 5516 5517 5518 5519 5520 5520 5521 5522 5523 5524 5525 5526 5526 5527 5528 5529 5529 5529 5530 5530 5530 5530 5530 5530 5529 5529 5528 5527 5526 5525 5524 5523
5553 5551 5549 5547 5546 5544 5542 5540 5538 5536 5535 5533 5532 5531 5530 5529 5528 5527 5526 5525 5524 5524 5523 5523 5523 5523 5522 5522 5522 5522 5521 5521 5521 5520 5520 5519 5519 5519 5518 5518 5517 5517 5516 5516 5515 5514 5514 5513 5513 5512 5512 5512 5512 5512 5512 5513 5514 5515 5515 5516 5517 5518 5518 5519 5520 5521 5522 5523 5524 5525 5525 5526 5526 5527 5527 5527 5527 5527 5527 5527 5527 5526 5525 5525 5524 5523 5522